This is the latest recevied weather packets stored in our database for station/object N5UKZ-WX. If no packets are shown the sender has not sent any weather packets the latest 10 day(s).
| Time | Temp. | Humidity | Pressure | Rain* | Wind** | Luminosity | Snow |
|---|---|---|---|---|---|---|---|
| 1777841503 | 25° C | 53% | 1019 hPa | 0 mm | - | - | - |
| 1777840603 | 24.44° C | 54% | 1019.3 hPa | 0 mm | - | - | - |
| 1777839703 | 24.44° C | 54% | 1019.7 hPa | 0 mm | - | - | - |
| 1777838803 | 24.44° C | 56% | 1020 hPa | 0 mm | - | - | - |
| 1777837903 | 24.44° C | 56% | 1020.4 hPa | 0 mm | - | - | - |
| 1777837003 | 23.89° C | 55% | 1020.7 hPa | 0 mm | - | - | - |
| 1777836102 | 23.89° C | 55% | 1021 hPa | 0 mm | - | - | - |
| 1777835202 | 23.33° C | 57% | 1021 hPa | 0 mm | - | - | - |
| 1777834302 | 23.33° C | 58% | 1021.4 hPa | 0 mm | - | - | - |
| 1777833402 | 23.33° C | 60% | 1021.4 hPa | 0 mm | - | - | - |
| 1777832502 | 22.22° C | 65% | 1021.7 hPa | 0 mm | - | - | - |
| 1777831601 | 22.22° C | 64% | 1021.7 hPa | 0 mm | - | - | - |
| 1777830701 | 21.67° C | 67% | 1022.1 hPa | 0 mm | - | - | - |
| 1777829801 | 21.67° C | 67% | 1022.4 hPa | 0 mm | - | - | - |
| 1777828901 | 21.11° C | 69% | 1022.4 hPa | 0 mm | - | - | - |
| 1777828001 | 21.67° C | 69% | 1022.4 hPa | 0 mm | - | - | - |
| 1777827101 | 20.56° C | 71% | 1022.4 hPa | 0 mm | - | - | - |
| 1777826200 | 20° C | 72% | 1023.1 hPa | 0 mm | - | - | - |
| 1777825300 | 20° C | 73% | 1023.1 hPa | 0 mm | - | - | - |
| 1777824400 | 19.44° C | 74% | 1023.4 hPa | 0 mm | - | - | - |
| 1777823500 | 18.89° C | 76% | 1023.4 hPa | 0 mm | - | - | - |
| 1777822600 | 18.33° C | 78% | 1023.4 hPa | 0 mm | - | - | - |
| 1777821699 | 17.78° C | 80% | 1023.4 hPa | 0 mm | - | - | - |
| 1777820799 | 17.78° C | 82% | 1023.4 hPa | 0 mm | - | - | - |
| 1777819899 | 16.67° C | 85% | 1023.4 hPa | 0 mm | - | - | - |
* Rain latest hour (hover to see other rain measurements)
** Current wind speed in m/s (hover to see current wind gust speed)